{"data":{"norad_id":68780,"intl_designator":"2026-086Q","name":"STARLINK-37266","alt_names":[],"object_type":"PAYLOAD","status":"ACTIVE","operator":null,"country":"US","launch_date":"2026-04-19","launch_site_code":"AFWTR","launch_vehicle":null,"mission":null,"orbit_class":"UNKNOWN","rcs_meters":null,"size_class":null,"mass_kg":null,"dimensions":null,"purposes":["comms"],"wikipedia_slug":null,"has_3d_model":false,"image_url":null,"decayed_at":null,"tle_current":{"epoch":"2026-05-25T04:00:03.998880Z","epoch_age_seconds":54560,"freshness":"FRESH","line1":"1 68780U 26086Q   26145.16671295 -.01907515  00000+0 -21703-1 0  9999","line2":"2 68780  97.2847 182.0333 0001268  82.9929 284.2794 15.65329980  6071","mean_motion":15.6532998,"eccentricity":0.0001268,"inclination_deg":97.2847,"raan_deg":182.0333,"arg_perigee_deg":82.9929,"mean_anomaly_deg":284.2794,"bstar":-0.021703,"rev_number":607,"period_min":91.993382762656,"perigee_km":371.43395435148,"apogee_km":373.14586261547,"semimajor_km":6750.4269084835,"source":"CELESTRAK","updated_at":"2026-05-25T13:38:22.037045Z"}}}